STARLINK-32289

Last updated on Sat Sep 28 2024 00:02:03 GMT+0000 (Coordinated Universal Time)

1 60737U 24152T 24271.58334491 -.01510676 00000+0 -42167-1 0 9998 2 60737 53.1605 201.7707 0001047 83.2779 162.8684 15.39386910 6058

Satellite not in orbit